TimeEDT,TemperatureF,Dew PointF,Humidity,Sea Level PressureIn,VisibilityMPH,Wind Direction,Wind SpeedMPH,Gust SpeedMPH,PrecipitationIn,Events,Conditions,WindDirDegrees,DateUTC
12:53 AM,73.9,63.0,68,29.91,10.0,West,3.5,-,N/A,,Clear,270,2013-07-07 04:53:00
1:53 AM,69.1,63.0,81,29.91,10.0,Calm,Calm,-,N/A,,Clear,0,2013-07-07 05:53:00
2:53 AM,71.1,63.0,75,29.91,10.0,West,3.5,-,N/A,,Clear,280,2013-07-07 06:53:00
3:53 AM,73.0,63.0,71,29.91,10.0,West,4.6,-,N/A,,Clear,280,2013-07-07 07:53:00
4:53 AM,72.0,63.0,73,29.90,10.0,West,3.5,-,N/A,,Clear,260,2013-07-07 08:53:00
5:53 AM,68.0,63.0,84,29.91,8.0,Calm,Calm,-,N/A,,Clear,0,2013-07-07 09:53:00
6:53 AM,73.9,64.0,71,29.91,9.0,Variable,3.5,-,N/A,,Clear,0,2013-07-07 10:53:00
7:53 AM,75.9,64.0,67,29.91,10.0,West,5.8,-,N/A,,Clear,260,2013-07-07 11:53:00
8:53 AM,79.0,63.0,58,29.92,10.0,West,5.8,-,N/A,,Clear,260,2013-07-07 12:53:00
9:53 AM,82.0,63.0,52,29.91,10.0,Variable,5.8,-,N/A,,Clear,0,2013-07-07 13:53:00
10:53 AM,84.9,63.0,48,29.91,10.0,Variable,5.8,18.4,N/A,,Clear,0,2013-07-07 14:53:00
11:53 AM,86.0,63.0,46,29.89,10.0,Variable,6.9,-,N/A,,Clear,0,2013-07-07 15:53:00
12:53 PM,87.1,63.0,44,29.89,10.0,WNW,9.2,-,N/A,,Scattered Clouds,290,2013-07-07 16:53:00
1:53 PM,89.1,63.0,42,29.88,10.0,WNW,12.7,21.9,N/A,,Clear,300,2013-07-07 17:53:00
2:53 PM,88.0,63.0,43,29.88,10.0,WNW,11.5,20.7,N/A,,Scattered Clouds,300,2013-07-07 18:53:00
3:53 PM,88.0,63.0,43,29.88,10.0,NW,13.8,21.9,N/A,,Scattered Clouds,310,2013-07-07 19:53:00
4:53 PM,87.1,62.1,43,29.87,10.0,WNW,9.2,-,N/A,,Clear,290,2013-07-07 20:53:00
5:53 PM,86.0,63.0,46,29.88,10.0,NW,9.2,-,N/A,,Clear,310,2013-07-07 21:53:00
6:53 PM,84.0,62.1,47,29.88,10.0,WNW,5.8,-,N/A,,Clear,300,2013-07-07 22:53:00
7:53 PM,81.0,64.0,56,29.89,10.0,Calm,Calm,-,N/A,,Clear,0,2013-07-07 23:53:00
8:53 PM,78.1,64.9,64,29.91,10.0,Calm,Calm,-,N/A,,Scattered Clouds,0,2013-07-08 00:53:00
9:53 PM,77.0,64.9,66,29.92,10.0,West,3.5,-,N/A,,Partly Cloudy,270,2013-07-08 01:53:00
10:53 PM,75.9,64.9,69,29.94,10.0,Calm,Calm,-,0.00,,Overcast,0,2013-07-08 02:53:00
11:53 PM,75.9,64.9,69,29.95,10.0,Calm,Calm,-,N/A,,Overcast,0,2013-07-08 03:53:00